Latest Weather Observations for Hay Airport

IDN60801

Issued at 12:35 pm EST Wednesday 30 July 2014 (issued every 30 minutes, with the page automatically refreshed every 10 minutes)

About weather observations | Map of weather stations | Latest weather observations for NSW | Other Formats
Station Details ID: 075019 Name: HAY AIRPORT AWS Lat: -34.54 Lon: 144.83 Height: 92.0 m
Data from the previous 72 hours. | See also: Recent months for locations in New South Wales
Date/Time
EST
Temp
°C
App
Temp
°C
Dew
Point
Rel
Hum
%
Delta-T
°C
Wind Press
QNH
hPa
Press
MSL
hPa
Rain
since 9 am
mm
Dir
 
Spd
km/h
Gust
km/h
Spd
kts
Gust
kts
30/12:30pm 19.4 14.1 9.9 54 5.1 WNW 28 37 15 20 1018.0 - 0.0
30/12:00pm 18.5 12.7 9.6 56 4.7 WNW 30 39 16 21 1018.6 1018.8 0.0
30/11:30am 18.3 13.3 9.4 56 4.7 WNW 26 35 14 19 1019.2 - 0.0
30/11:00am 17.5 12.2 9.9 61 4.0 W 28 33 15 18 1019.6 1019.8 0.0
30/10:30am 17.1 11.4 9.8 62 3.9 WNW 30 39 16 21 1019.7 - 0.0
30/10:00am 16.4 10.9 9.3 63 3.7 WNW 28 35 15 19 1019.8 1020.0 0.0
30/09:30am 15.6 10.9 9.1 65 3.4 NW 24 32 13 17 1019.5 - 0.0
30/09:00am 13.9 9.1 8.7 71 2.6 NW 24 35 13 19 1019.4 1019.6 0.0
30/08:30am 12.3 8.1 8.2 76 2.0 NW 20 24 11 13 1019.4 - 0.0
30/08:00am 11.7 8.0 8.0 78 1.8 NNW 17 20 9 11 1019.3 1019.5 0.0
30/07:30am 11.6 8.3 8.1 79 1.7 NW 15 19 8 10 1019.1 - 0.0
30/07:00am 10.0 6.2 7.6 85 1.2 NW 17 17 9 9 1018.7 1018.9 0.0
30/06:30am 9.7 5.8 7.1 84 1.2 NW 17 19 9 10 1018.5 - 0.0
30/06:00am 10.0 5.8 7.3 83 1.3 NW 19 20 10 11 1018.2 1018.4 0.0
30/05:30am 10.0 6.1 7.1 82 1.4 NW 17 19 9 10 1018.0 - 0.0
30/05:00am 11.1 7.3 7.6 79 1.7 NNW 17 20 9 11 1017.8 1018.0 0.0
30/04:30am 10.7 7.2 7.2 79 1.7 NW 15 17 8 9 1017.8 - 0.0
30/04:00am 11.4 7.5 7.3 76 2.0 NW 17 20 9 11 1017.8 1018.0 0.0
30/03:30am 12.1 7.9 7.6 74 2.2 NNW 19 22 10 12 1017.8 - 0.0
30/03:00am 12.0 8.1 7.3 73 2.3 NNW 17 20 9 11 1017.9 1018.1 0.0
30/02:30am 13.4 9.6 7.6 68 2.9 NNW 17 19 9 10 1018.0 - 0.0
30/02:00am 13.8 10.8 7.8 67 3.0 NW 13 17 7 9 1018.2 1018.4 0.0
30/01:30am 14.2 10.1 7.7 65 3.2 NW 19 22 10 12 1018.2 - 0.0
30/01:00am 14.9 10.7 8.4 65 3.3 NW 20 30 11 16 1018.2 1018.4 0.0
30/12:30am 14.6 10.4 8.1 65 3.3 NW 20 26 11 14 1018.3 - 0.0
30/12:00am 14.2 10.4 7.7 65 3.2 NW 17 19 9 10 1018.4 1018.6 0.0
 
Date/Time
EST
Temp
°C
App
Temp
°C
Dew
Point
Rel
Hum
%
Delta-T
°C
Wind Press
QNH
hPa
Press
MSL
hPa
Rain
since 9 am
mm
Dir
 
Spd
km/h
Gust
km/h
Spd
kts
Gust
kts
29/11:30pm 14.3 10.9 7.6 64 3.3 NW 15 20 8 11 1018.3 - 0.0
29/11:00pm 14.0 10.5 7.3 64 3.3 NNW 15 19 8 10 1018.3 1018.5 0.0
29/10:30pm 12.6 9.1 7.1 69 2.7 NNW 15 17 8 9 1018.3 - 0.0
29/10:00pm 13.6 9.7 6.9 64 3.2 NNW 17 20 9 11 1018.2 1018.4 0.0
29/09:30pm 15.3 11.1 7.3 59 4.0 NW 19 20 10 11 1018.1 - 0.0
29/09:00pm 15.7 11.4 7.2 57 4.2 NW 19 22 10 12 1018.2 1018.4 0.0
29/08:30pm 15.8 11.9 7.0 56 4.4 WNW 17 20 9 11 1018.0 - 0.0
29/08:00pm 16.3 12.1 7.3 55 4.5 WNW 19 20 10 11 1017.7 1017.9 0.0
29/07:30pm 15.8 11.8 6.8 55 4.4 WNW 17 20 9 11 1017.5 - 0.0
29/07:00pm 16.3 11.9 6.4 52 4.8 WNW 19 26 10 14 1017.3 1017.5 0.0
29/06:30pm 16.5 11.9 6.3 51 5.0 W 20 26 11 14 1017.0 - 0.0
29/06:00pm 16.5 11.9 5.5 48 5.3 W 19 22 10 12 1016.6 1016.7 0.0
29/05:30pm 17.6 12.7 3.9 40 6.4 W 19 22 10 12 1016.1 - 0.0
29/05:00pm 19.3 12.9 3.1 34 7.6 WNW 26 35 14 19 1015.8 1015.9 0.0
29/04:30pm 20.4 13.5 2.7 31 8.3 WNW 28 37 15 20 1015.3 - 0.0
29/04:00pm 20.3 12.3 1.7 29 8.5 WNW 33 43 18 23 1015.1 1015.2 0.0
29/03:30pm 21.3 13.7 2.6 29 8.8 WNW 32 43 17 23 1015.1 - 0.0
29/03:00pm 21.2 13.9 2.5 29 8.8 WNW 30 43 16 23 1015.0 1015.1 0.0
29/02:30pm 21.6 14.7 2.8 29 8.9 WNW 28 39 15 21 1015.2 - 0.0
29/02:00pm 21.3 13.4 2.1 28 9.0 WNW 33 46 18 25 1015.4 1015.5 0.0
29/01:30pm 20.3 11.9 1.7 29 8.6 WNW 35 48 19 26 1015.5 - 0.0
29/01:00pm 20.5 12.5 1.9 29 8.6 NW 33 43 18 23 1015.9 1016.0 0.0
29/12:30pm 20.2 12.3 2.1 30 8.4 NW 33 44 18 24 1016.1 - 0.0
29/12:00pm 19.9 12.4 3.2 33 7.9 NW 32 43 17 23 1016.6 1016.7 0.0
29/11:30am 18.9 12.2 3.9 37 7.1 NW 28 39 15 21 1017.1 - 0.0
29/11:00am 18.2 11.4 5.1 42 6.3 NW 30 39 16 21 1017.6 1017.8 0.0
29/10:30am 17.0 11.1 5.6 47 5.5 NW 26 35 14 19 1018.3 - 0.0
29/10:00am 15.7 10.5 5.3 50 5.0 NNW 22 30 12 16 1018.5 1018.7 0.0
29/09:30am 14.2 9.6 5.8 57 4.0 NNW 19 24 10 13 1018.4 - 0.0
29/09:00am 11.4 6.9 4.4 62 3.2 N 17 20 9 11 1018.3 1018.5 0.0
29/08:30am 10.3 6.5 3.8 64 2.9 NNW 13 17 7 9 1018.0 - 0.0
29/08:00am 7.5 4.0 3.6 76 1.7 NNW 11 13 6 7 1018.1 1018.3 0.0
29/07:30am 7.4 2.6 2.7 72 2.0 N 17 20 9 11 1017.3 - 0.0
29/07:00am 6.9 1.5 2.4 73 1.9 N 20 20 11 11 1017.3 1017.5 0.0
29/06:30am 7.0 2.6 2.7 74 1.8 NNW 15 17 8 9 1017.6 - 0.0
29/06:00am 7.0 2.3 2.9 75 1.7 N 17 20 9 11 1016.9 1017.1 0.0
29/05:30am 6.4 2.3 2.3 75 1.7 NNW 13 15 7 8 1017.0 - 0.0
29/05:00am 7.2 3.1 2.1 70 2.1 NNW 13 15 7 8 1016.9 1017.1 0.0
29/04:30am 8.5 3.7 2.7 67 2.5 N 17 20 9 11 1016.7 - 0.0
29/04:00am 8.8 4.4 2.6 65 2.6 N 15 17 8 9 1016.8 1017.0 0.0
29/03:30am 8.5 4.1 2.9 68 2.4 N 15 17 8 9 1016.9 - 0.0
29/03:00am 8.3 3.9 2.8 68 2.3 N 15 15 8 8 1016.8 1017.0 0.0
29/02:30am 8.4 4.3 2.4 66 2.5 NNW 13 13 7 7 1016.9 - 0.0
29/02:00am 9.4 5.3 2.5 62 2.9 NW 13 13 7 7 1017.0 1017.2 0.0
29/01:30am 9.9 5.8 2.5 60 3.2 NW 13 15 7 8 1017.0 - 0.0
29/01:00am 10.6 6.6 2.7 58 3.4 NW 13 15 7 8 1017.0 1017.2 0.0
29/12:30am 11.4 7.0 2.9 56 3.7 WNW 15 17 8 9 1017.0 - 0.0
29/12:00am 12.4 7.1 2.8 52 4.2 N 20 26 11 14 1016.7 1016.8 0.0
 
Date/Time
EST
Temp
°C
App
Temp
°C
Dew
Point
Rel
Hum
%
Delta-T
°C
Wind Press
QNH
hPa
Press
MSL
hPa
Rain
since 9 am
mm
Dir
 
Spd
km/h
Gust
km/h
Spd
kts
Gust
kts
28/11:30pm 13.1 7.8 3.2 51 4.4 N 20 26 11 14 1016.8 - 0.0
28/11:00pm 13.7 9.1 3.8 51 4.5 N 17 24 9 13 1016.9 1017.1 0.0
28/10:30pm 13.6 9.8 3.9 52 4.4 NNE 13 15 7 8 1017.2 - 0.0
28/10:00pm 14.7 10.6 4.4 50 4.8 NNE 15 19 8 10 1017.3 1017.5 0.0
28/09:30pm 14.1 10.5 4.9 54 4.3 NNE 13 13 7 7 1017.4 - 0.0
28/09:00pm 13.3 10.1 5.0 57 3.9 NNE 11 11 6 6 1017.5 1017.7 0.0
28/08:30pm 13.2 10.4 5.1 58 3.8 NNE 9 11 5 6 1017.3 - 0.0
28/08:00pm 13.1 10.8 4.8 57 3.8 N 6 9 3 5 1017.4 1017.6 0.0
28/07:30pm 13.4 12.1 4.3 54 4.2 CALM 0 0 0 0 1017.4 - 0.0
28/07:00pm 14.0 12.7 4.0 51 4.6 CALM 0 0 0 0 1017.5 1017.7 0.0
28/06:30pm 15.8 12.4 4.2 46 5.4 WSW 11 15 6 8 1017.3 - 0.0
28/06:00pm 16.0 12.3 4.4 46 5.4 W 13 15 7 8 1017.1 1017.3 0.0
28/05:30pm 17.5 13.7 3.8 40 6.4 WNW 13 15 7 8 1016.8 - 0.0
28/05:00pm 18.7 14.3 2.9 35 7.3 WNW 15 19 8 10 1016.7 1016.8 0.0
28/04:30pm 19.4 14.3 3.2 34 7.6 WNW 19 24 10 13 1016.7 - 0.0
28/04:00pm 19.9 14.8 3.2 33 7.9 NW 19 24 10 13 1016.7 1016.8 0.0
28/03:30pm 20.3 14.2 2.6 31 8.3 NW 24 32 13 17 1016.6 - 0.0
28/03:00pm 20.4 13.5 2.3 30 8.4 NW 28 39 15 21 1016.7 1016.8 0.0
28/02:30pm 21.9 14.3 2.6 28 9.1 NW 32 43 17 23 1016.9 - 0.0
28/02:00pm 21.8 15.7 3.0 29 9.0 WNW 24 32 13 17 1017.2 1017.4 0.0
28/01:30pm 19.8 14.1 2.6 32 8.0 NNW 22 30 12 16 1017.9 - 0.0
28/01:00pm 18.7 13.1 3.3 36 7.2 NNW 22 28 12 15 1018.4 1018.6 0.0
28/12:30pm 17.9 11.4 2.6 36 7.0 N 26 32 14 17 1019.1 - 0.0
28/12:00pm 18.2 11.3 2.5 35 7.2 NNW 28 35 15 19 1019.4 1019.6 0.0
28/11:30am 17.8 11.8 3.3 38 6.8 NNW 24 32 13 17 1019.8 - 0.0
28/11:00am 16.3 10.3 3.4 42 5.9 NNW 24 30 13 16 1020.4 1020.6 0.0
28/10:30am 15.7 9.9 4.4 47 5.3 N 24 30 13 16 1020.6 - 0.0
28/10:00am 13.8 9.0 4.7 54 4.2 N 19 22 10 12 1020.9 1021.1 0.0
28/09:30am 12.1 7.2 4.1 58 3.6 N 19 24 10 13 1021.0 - 0.0
28/09:00am 10.4 5.9 4.1 65 2.8 N 17 20 9 11 1020.9 1021.1 0.0
28/08:30am 8.5 3.8 3.1 69 2.3 N 17 20 9 11 1020.9 - 0.0
28/08:00am 7.0 3.0 3.1 76 1.6 N 13 17 7 9 1020.8 1021.0 0.0
28/07:30am 6.1 1.7 2.7 79 1.4 N 15 17 8 9 1020.8 - 0.0
28/07:00am 6.2 1.8 2.7 78 1.4 N 15 17 8 9 1020.6 1020.8 0.0
28/06:30am 6.6 1.9 2.9 77 1.5 N 17 19 9 10 1020.5 - 0.0
28/06:00am 6.9 2.6 3.0 76 1.6 N 15 19 8 10 1020.6 1020.8 0.0
28/05:30am 7.1 2.8 3.0 75 1.7 N 15 19 8 10 1020.5 - 0.0
28/05:00am 7.8 3.1 3.3 73 1.9 N 17 20 9 11 1020.4 1020.6 0.0
28/04:30am 8.0 3.0 3.5 73 1.9 N 19 22 10 12 1020.5 - 0.0
28/04:00am 8.5 3.9 3.8 72 2.0 N 17 20 9 11 1020.8 1021.0 0.0
28/03:30am 8.4 3.8 3.7 72 2.0 N 17 20 9 11 1020.9 - 0.0
28/03:00am 8.8 4.6 3.8 71 2.2 N 15 19 8 10 1021.5 1021.7 0.0
28/02:30am 9.3 4.4 4.1 70 2.3 N 19 22 10 12 1021.3 - 0.0
28/02:00am 9.1 4.6 4.1 71 2.2 N 17 20 9 11 1021.2 1021.4 0.0
28/01:30am 9.4 4.9 4.2 70 2.3 N 17 20 9 11 1021.7 - 0.0
28/01:00am 9.8 5.7 4.6 70 2.3 N 15 19 8 10 1021.8 1022.0 0.0
28/12:30am 9.7 6.0 4.5 70 2.3 N 13 19 7 10 1021.9 - 0.0
28/12:00am 10.1 5.7 4.7 69 2.4 NNE 17 20 9 11 1022.1 1022.3 0.0
 
Date/Time
EST
Temp
°C
App
Temp
°C
Dew
Point
Rel
Hum
%
Delta-T
°C
Wind Press
QNH
hPa
Press
MSL
hPa
Rain
since 9 am
mm
Dir
 
Spd
km/h
Gust
km/h
Spd
kts
Gust
kts
27/11:30pm 9.6 5.5 4.4 70 2.3 NNE 15 19 8 10 1022.4 - 0.0
27/11:00pm 9.3 5.2 4.1 70 2.3 N 15 19 8 10 1022.9 1023.0 0.0
27/10:30pm 8.6 4.9 4.4 75 1.9 NNE 13 17 7 9 1022.9 - 0.0
27/10:00pm 9.1 5.8 4.5 73 2.0 NNE 11 15 6 8 1022.9 1023.0 0.0
27/09:30pm 9.8 5.4 5.0 72 2.2 NNE 17 19 9 10 1023.0 - 0.0
27/09:00pm 9.6 6.3 4.4 70 2.3 NNE 11 13 6 7 1023.7 1023.8 0.0
27/08:30pm 10.4 7.2 5.0 69 2.5 NE 11 13 6 7 1023.7 - 0.0
27/08:00pm 10.4 7.6 5.2 70 2.4 NNE 9 11 5 6 1023.7 1023.8 0.0
27/07:30pm 10.2 9.0 4.4 67 2.6 CALM 0 0 0 0 1023.7 - 0.0
27/07:00pm 11.5 10.0 5.2 65 2.9 N 2 6 1 3 1023.6 1023.7 0.0
27/06:30pm 11.7 8.8 4.9 63 3.1 N 9 11 5 6 1023.0 - 0.0
27/06:00pm 13.2 10.4 5.1 58 3.8 N 9 11 5 6 1023.2 1023.3 0.0
27/05:30pm 14.5 11.7 5.0 53 4.5 N 9 9 5 5 1022.9 - 0.0
27/05:00pm 15.9 13.2 5.8 51 4.9 N 9 11 5 6 1022.9 1023.0 0.0
27/04:30pm 16.3 13.5 5.3 48 5.3 N 9 11 5 6 1023.0 - 0.0
27/04:00pm 17.8 15.6 5.1 43 6.1 NNW 6 13 3 7 1023.3 1023.4 0.0
27/03:30pm 18.0 14.8 5.2 43 6.2 NW 11 15 6 8 1023.7 - 0.0
27/03:00pm 17.3 13.7 4.9 44 5.9 NW 13 17 7 9 1023.9 1024.0 0.0
27/02:30pm 17.7 14.2 5.3 44 6.0 NW 13 22 7 12 1024.1 - 0.0
27/02:00pm 17.1 12.8 5.4 46 5.6 NNW 17 24 9 13 1024.5 1024.6 0.0
27/01:30pm 16.9 13.5 6.1 49 5.3 WNW 13 22 7 12 1025.0 - 0.0
27/01:00pm 16.6 12.4 5.6 48 5.3 NW 17 28 9 15 1025.4 1025.5 0.0

Other Formats:

Comma delimited format used in spreadsheet applications
http://www.bom.gov.au/fwo/IDN60801/IDN60801.94702.axf

JavaScript Object Notation format (JSON) in row-major order
http://www.bom.gov.au/fwo/IDN60801/IDN60801.94702.json